Hourly Weather Kuperbash

Today, 5 August, Wednesday

Time Temperature Precipitation Wind Pressure Humidity
00:00 +14°C° 0 mm 4 mps 756 mmHg 83%
01:00 +14°C° 0 mm 4 mps 756 mmHg 81%
02:00 +14°C° 0 mm 5 mps 756 mmHg 80%
03:00 +14°C° 0 mm 5 mps 757 mmHg 78%
04:00 +14°C° 0 mm 5 mps 756 mmHg 80%
05:00 +15°C° 0 mm 5 mps 756 mmHg 82%
06:00 +15°C° 0 mm 6 mps 756 mmHg 84%
07:00 +16°C° 0 mm 6 mps 756 mmHg 83%
08:00 +17°C° 0 mm 6 mps 756 mmHg 82%
09:00 +19°C° 0 mm 6 mps 756 mmHg 81%
10:00 +20°C° 0 mm 5 mps 756 mmHg 81%
11:00 +20°C° 0 mm 5 mps 756 mmHg 81%
12:00 +21°C° 0 mm 5 mps 756 mmHg 81%
13:00 +22°C° 0 mm 4 mps 756 mmHg 79%
14:00 +23°C° 0 mm 4 mps 756 mmHg 78%
15:00 +25°C° 0 mm 4 mps 756 mmHg 77%
16:00 +25°C° 0 mm 3 mps 755 mmHg 79%
17:00 +25°C° 0 mm 3 mps 755 mmHg 82%
18:00 +25°C° 0 mm 2 mps 755 mmHg 84%
19:00 +22°C° 0 mm 3 mps 755 mmHg 87%
20:00 +21°C° 0 mm 3 mps 755 mmHg 90%
21:00 +20°C° 0 mm 3 mps 755 mmHg 94%
22:00 +20°C° 0 mm 3 mps 755 mmHg 94%
23:00 +19°C° 0 mm 3 mps 755 mmHg 95%

Tomorrow, 6 August, Thursday

Time Temperature Precipitation Wind Pressure Humidity
00:00 +19°C° 0 mm 3 mps 755 mmHg 96%
01:00 +19°C° 0 mm 3 mps 755 mmHg 96%
02:00 +19°C° 0 mm 2 mps 755 mmHg 97%
03:00 +19°C° 0 mm 2 mps 755 mmHg 97%
04:00 +19°C° 0 mm 2 mps 755 mmHg 96%
05:00 +20°C° 0 mm 3 mps 755 mmHg 95%
06:00 +20°C° 0 mm 3 mps 755 mmHg 94%
07:00 +22°C° 0 mm 3 mps 755 mmHg 88%
08:00 +24°C° 0 mm 3 mps 756 mmHg 83%
09:00 +26°C° 0 mm 3 mps 756 mmHg 77%
10:00 +27°C° 0 mm 3 mps 756 mmHg 72%
11:00 +28°C° 0 mm 2 mps 755 mmHg 68%
12:00 +29°C° 0 mm 2 mps 755 mmHg 63%
13:00 +29°C° 0 mm 2 mps 755 mmHg 62%
14:00 +29°C° 0 mm 2 mps 755 mmHg 60%
15:00 +30°C° 0 mm 2 mps 755 mmHg 59%
16:00 +29°C° 0 mm 2 mps 754 mmHg 63%
17:00 +28°C° 0 mm 2 mps 754 mmHg 68%
18:00 +27°C° 0 mm 1 mps 754 mmHg 72%
19:00 +26°C° 0 mm 1 mps 754 mmHg 76%
20:00 +24°C° 0 mm 1 mps 754 mmHg 80%
21:00 +23°C° 0 mm 1 mps 754 mmHg 83%
22:00 +22°C° 0 mm 1 mps 754 mmHg 85%
23:00 +22°C° 0 mm 1 mps 753 mmHg 86%

Day after tomorrow, 7 August, Friday

Time Temperature Precipitation Wind Pressure Humidity
00:00 +21°C° 0 mm 1 mps 753 mmHg 87%
01:00 +21°C° 0 mm 1 mps 753 mmHg 88%
02:00 +19°C° 0 mm 0 mps 753 mmHg 88%
03:00 +19°C° 0 mm 0 mps 753 mmHg 88%
04:00 +20°C° 0 mm 0 mps 753 mmHg 86%
05:00 +20°C° 0 mm 0 mps 752 mmHg 85%
06:00 +21°C° 0 mm 0 mps 752 mmHg 83%
07:00 +22°C° 0.1 mm 0 mps 752 mmHg 79%
08:00 +25°C° 0.1 mm 1 mps 752 mmHg 76%
09:00 +26°C° 0.1 mm 1 mps 752 mmHg 72%
10:00 +27°C° 0.8 mm 1 mps 752 mmHg 69%
11:00 +27°C° 0.8 mm 2 mps 752 mmHg 66%
12:00 +28°C° 0.8 mm 3 mps 752 mmHg 63%
13:00 +27°C° 0.6 mm 4 mps 752 mmHg 66%
14:00 +27°C° 0.6 mm 5 mps 752 mmHg 69%
15:00 +26°C° 0.6 mm 6 mps 751 mmHg 72%
16:00 +24°C° 0.7 mm 6 mps 752 mmHg 76%
17:00 +23°C° 0.7 mm 6 mps 752 mmHg 80%
18:00 +22°C° 0.7 mm 7 mps 752 mmHg 83%
19:00 +21°C° 0 mm 7 mps 752 mmHg 81%
20:00 +18°C° 0 mm 7 mps 752 mmHg 78%
21:00 +17°C° 0 mm 6 mps 753 mmHg 76%
22:00 +17°C° 0 mm 6 mps 753 mmHg 77%
23:00 +16°C° 0 mm 6 mps 753 mmHg 78%

8 August, Saturday

Time Temperature Precipitation Wind Pressure Humidity
00:00 +16°C° 0 mm 6 mps 753 mmHg 78%
01:00 +15°C° 0 mm 6 mps 753 mmHg 78%
02:00 +14°C° 0 mm 6 mps 753 mmHg 77%
03:00 +14°C° 0 mm 6 mps 753 mmHg 76%
04:00 +14°C° 0 mm 6 mps 753 mmHg 79%
05:00 +14°C° 0 mm 6 mps 753 mmHg 82%
06:00 +14°C° 0 mm 6 mps 754 mmHg 85%
07:00 +15°C° 0 mm 6 mps 753 mmHg 81%
08:00 +16°C° 0 mm 6 mps 753 mmHg 78%
09:00 +17°C° 0 mm 6 mps 753 mmHg 74%
10:00 +19°C° 0 mm 6 mps 753 mmHg 71%
11:00 +20°C° 0 mm 6 mps 753 mmHg 68%
12:00 +20°C° 0 mm 6 mps 753 mmHg 65%
13:00 +21°C° 0 mm 6 mps 752 mmHg 65%
14:00 +21°C° 0 mm 6 mps 752 mmHg 65%
15:00 +21°C° 0 mm 6 mps 752 mmHg 65%
16:00 +20°C° 0.1 mm 5 mps 752 mmHg 69%
17:00 +19°C° 0.1 mm 5 mps 752 mmHg 73%
18:00 +19°C° 0.1 mm 4 mps 752 mmHg 77%
19:00 +17°C° 0 mm 4 mps 751 mmHg 81%
20:00 +15°C° 0 mm 4 mps 751 mmHg 84%
21:00 +13°C° 0 mm 3 mps 751 mmHg 87%
22:00 +12°C° 0 mm 3 mps 751 mmHg 87%
23:00 +12°C° 0 mm 3 mps 751 mmHg 87%

9 August, Sunday

Time Temperature Precipitation Wind Pressure Humidity
00:00 +12°C° 0 mm 2 mps 751 mmHg 87%
01:00 +11°C° 0 mm 3 mps 750 mmHg 89%
02:00 +10°C° 0 mm 3 mps 750 mmHg 91%
03:00 +10°C° 0 mm 3 mps 750 mmHg 93%
04:00 +10°C° 0 mm 3 mps 750 mmHg 89%
05:00 +11°C° 0 mm 3 mps 750 mmHg 86%
06:00 +12°C° 0 mm 3 mps 750 mmHg 83%
07:00 +13°C° 0 mm 3 mps 750 mmHg 77%
08:00 +14°C° 0 mm 4 mps 749 mmHg 71%
09:00 +15°C° 0 mm 4 mps 749 mmHg 64%
10:00 +17°C° 0 mm 4 mps 749 mmHg 62%
11:00 +17°C° 0 mm 4 mps 749 mmHg 59%
12:00 +18°C° 0 mm 4 mps 749 mmHg 56%
13:00 +18°C° 0 mm 3 mps 749 mmHg 57%
14:00 +18°C° 0 mm 3 mps 748 mmHg 57%
15:00 +18°C° 0 mm 3 mps 748 mmHg 58%
16:00 +17°C° 0.2 mm 3 mps 748 mmHg 64%
17:00 +17°C° 0.2 mm 3 mps 748 mmHg 71%
18:00 +16°C° 0.2 mm 3 mps 748 mmHg 78%
19:00 +13°C° 0 mm 3 mps 747 mmHg 82%
20:00 +13°C° 0 mm 2 mps 747 mmHg 86%
21:00 +12°C° 0 mm 2 mps 747 mmHg 90%
22:00 +10°C° 0 mm 2 mps 747 mmHg 91%
23:00 +10°C° 0 mm 2 mps 747 mmHg 92%

10 August, Monday

Time Temperature Precipitation Wind Pressure Humidity
00:00 +9°C° 0 mm 2 mps 747 mmHg 93%
01:00 +9°C° 0 mm 2 mps 747 mmHg 93%
02:00 +9°C° 0 mm 2 mps 747 mmHg 94%
03:00 +8°C° 0 mm 2 mps 747 mmHg 94%
04:00 +9°C° 0 mm 3 mps 747 mmHg 94%
05:00 +9°C° 0 mm 3 mps 747 mmHg 93%
06:00 +10°C° 0 mm 3 mps 747 mmHg 92%
07:00 +11°C° 0 mm 4 mps 746 mmHg 87%
08:00 +13°C° 0 mm 4 mps 746 mmHg 82%
09:00 +14°C° 0 mm 4 mps 746 mmHg 77%
10:00 +14°C° 0.1 mm 4 mps 746 mmHg 75%
11:00 +15°C° 0.1 mm 5 mps 746 mmHg 72%
12:00 +15°C° 0.1 mm 5 mps 746 mmHg 69%
13:00 +15°C° 0 mm 5 mps 746 mmHg 68%
14:00 +16°C° 0 mm 5 mps 746 mmHg 67%
15:00 +16°C° 0 mm 5 mps 745 mmHg 66%
16:00 +15°C° 0 mm 5 mps 745 mmHg 70%
17:00 +15°C° 0 mm 5 mps 745 mmHg 75%
18:00 +14°C° 0 mm 4 mps 745 mmHg 79%
19:00 +14°C° 0.2 mm 4 mps 744 mmHg 84%
20:00 +13°C° 0.2 mm 5 mps 744 mmHg 89%
21:00 +12°C° 0.2 mm 5 mps 743 mmHg 93%
22:00 +12°C° 3.4 mm 5 mps 742 mmHg 95%
23:00 +11°C° 3.4 mm 6 mps 741 mmHg 96%
Show more